Location: Sungai Anya
(2.6167°N, 114.0500°E)
Time: 19:48:40
(UTC+00:00)

CZ-4 R/B - Pass Details

Date: 19 October 2021
Orbit: 530 x 596 km, 97.8° (Epoch: 08 December)

Event Time Altitude Azimuth Distance (km) Brightness Sun altitude
Rises 11:26:35 0° 162° (SSE) 2,674 4.8 -19.6°
Reaches altitude 10° 11:28:42 10° 159° (SSE) 1,787 3.8 -20.1°
Enters shadow 11:29:41 17° 155° (SSE) 1,390 3.2 -20.4°
Exits shadow 11:37:18 - 356° (N) 2,201 4.3 -22.2°
Sets 11:38:30 0° 355° (N) 2,710 4.8 -22.5°
